FW1564 Weather Reports


time (UTC)temp
C
wind
direction
speed
KPH
gust
KPH
rain 1hr
cm
rain 24hr
cm
rain mn
cm
humidity
%
barometer
mb
20260905001757 18 352 1.6 3.2 0.00 0.00 0.00 84 1021.5
20260905001237 18 342 1.6 3.2 0.00 0.00 0.00 83 1021.3
20260905000238 18 339 1.6 3.2 0.00 0.00 0.00 83 1021.5
20260904234758 18 355 1.6 3.2 0.00 0.00 0.00 83 1021.5
20260904233758 18 337 1.6 4.8 0.00 0.00 0.00 84 1021.3
20260904232758 18 355 3.2 6.4 0.00 0.00 0.00 85 1021.2
20260904231758 18 348 3.2 4.8 0.00 0.00 0.00 83 1021.3
20260904230758 19 26 1.6 6.4 0.00 0.00 0.00 84 1021.2
20260904225758 19 333 3.2 4.8 0.00 0.00 0.00 84 1021.5
20260904224758 18 343 1.6 6.4 0.00 0.00 0.00 84 1021.1
20260904223759 18 344 3.2 6.4 0.00 0.00 0.00 83 1021.5
20260904222758 18 346 3.2 6.4 0.00 0.00 0.00 82 1021.5
20260904221758 18 334 3.2 6.4 0.00 0.00 0.00 83 1021.3
20260904220759 18 351 4.8 9.7 0.00 0.00 0.00 84 1021.7
20260904215758 19 340 3.2 9.7 0.00 0.00 0.00 85 1021.6
20260904214758 19 328 3.2 6.4 0.00 0.00 0.00 86 1021.5
20260904213758 20 6 0.0 1.6 0.00 0.00 0.00 87 1021.3
20260904212758 20 44 1.6 1.6 0.00 0.00 0.00 88 1021.5
20260904211758 20 109 0.0 3.2 0.00 0.00 0.00 88 1021.3
20260904210759 20 84 0.0 1.6 0.00 0.00 0.00 87 1021.6
20260904205758 20 15 0.0 1.6 0.00 0.00 0.00 88 1021.5
20260904204758 19 25 0.0 1.6 0.00 0.00 0.00 87 1021.3
20260904203757 19 329 0.0 1.6 0.00 0.00 0.00 88 1021.2
20260904202759 19 25 0.0 1.6 0.00 0.00 0.00 89 1021.0
20260904201758 18 12 0.0 3.2 0.00 0.00 0.00 89 1020.8
20260904200759 18 345 0.0 3.2 0.00 0.00 0.00 89 1020.7
20260904195757 19 80 0.0 3.2 0.00 0.00 0.00 90 1020.5
20260904194758 19 339 0.0 1.6 0.00 0.00 0.00 90 1020.3
20260904193758 19 37 0.0 1.6 0.00 0.00 0.00 89 1020.0
20260904192757 20 143 0.0 1.6 0.00 0.00 0.00 89 1020.0
20260904191758 20 111 1.6 3.2 0.00 0.00 0.00 89 1020.0
20260904190758 20 128 1.6 6.4 0.00 0.00 0.00 88 1020.1
20260904185758 20 141 3.2 4.8 0.00 0.00 0.00 88 1019.9
20260904184758 20 164 1.6 4.8 0.00 0.00 0.00 87 1020.1
20260904183759 20 195 0.0 9.7 0.00 0.00 0.00 86 1019.7
20260904182758 20 133 3.2 4.8 0.00 0.00 0.00 86 1019.8
20260904181758 20 180 1.6 11.3 0.00 0.00 0.00 86 1019.9
20260904180758 20 165 4.8 9.7 0.00 0.00 0.00 86 1019.9
20260904180235 21 119 4.8 9.7 0.00 0.00 0.00 85 1019.9
20260904174801 21 119 6.4 9.7 0.00 0.00 0.00 84 1019.9
20260904173758 21 164 4.8 9.7 0.00 0.00 0.00 84 1019.7
20260904172758 21 120 1.6 9.7 0.00 0.00 0.00 83 1019.7
20260904171758 21 121 6.4 9.7 0.00 0.00 0.00 82 1019.8
20260904170758 21 151 3.2 12.9 0.00 0.00 0.00 82 1019.9
20260904170232 22 178 3.2 11.3 0.00 0.00 0.00 80 1019.9
20260904164758 22 157 6.4 12.9 0.00 0.00 0.00 78 1020.0
20260904163758 22 161 6.4 11.3 0.00 0.00 0.00 77 1019.7
20260904162757 22 108 4.8 12.9 0.00 0.00 0.00 79 1020.0
20260904161757 23 109 6.4 12.9 0.00 0.00 0.00 77 1020.0
20260904160758 22 219 4.8 11.3 0.00 0.00 0.00 78 1020.0
20260904155758 22 185 4.8 11.3 0.00 0.00 0.00 81 1020.0
20260904155255 21 105 4.8 11.3 0.00 0.00 0.00 81 1020.4
20260904153758 21 103 3.2 11.3 0.00 0.00 0.00 83 1020.5
20260904152759 21 193 4.8 9.7 0.00 0.00 0.00 82 1020.7
20260904151802 21 183 3.2 12.9 0.00 0.00 0.00 84 1020.9
20260904150758 21 109 6.4 11.3 0.00 0.00 0.00 83 1020.7
20260904150240 21 126 3.2 6.4 0.00 0.00 0.00 83 1021.2
20260904144758 21 180 4.8 9.7 0.00 0.00 0.00 83 1021.0
20260904143758 21 151 3.2 11.3 0.00 0.00 0.00 84 1021.1
20260904142759 21 132 3.2 11.3 0.00 0.00 0.00 83 1021.1
20260904141758 21 121 4.8 11.3 0.00 0.00 0.00 82 1021.2
20260904140758 21 144 4.8 12.9 0.00 0.00 0.00 81 1021.1
20260904140237 21 111 6.4 12.9 0.00 0.00 0.00 80 1021.1
20260904134758 22 212 4.8 12.9 0.00 0.00 0.00 79 1021.1
20260904133758 22 163 4.8 12.9 0.00 0.00 0.00 79 1021.0
20260904132759 22 122 6.4 11.3 0.00 0.00 0.00 77 1021.1
20260904131758 22 155 8.0 12.9 0.00 0.00 0.00 77 1021.0
20260904130758 22 111 8.0 16.1 0.00 0.00 0.00 78 1021.0
20260904125758 22 104 8.0 14.5 0.00 0.00 0.00 77 1021.1
20260904124759 23 167 9.7 17.7 0.00 0.00 0.00 73 1021.3
20260904123758 23 163 6.4 16.1 0.00 0.00 0.00 75 1021.3
20260904122758 23 122 4.8 16.1 0.00 0.00 0.00 73 1021.0
20260904121757 23 251 4.8 12.9 0.00 0.00 0.00 72 1021.0
20260904121236 23 108 4.8 9.7 0.00 0.00 0.00 73 1021.3
20260904115759 22 169 3.2 12.9 0.00 0.00 0.00 76 1021.7
20260904115720 23 114 6.4 11.3 0.00 0.00 0.00 74 1021.7
20260904113758 23 120 8.0 16.1 0.00 0.00 0.00 72 1021.6
20260904113238 23 135 8.0 14.5 0.00 0.00 0.00 74 1021.7
20260904111758 23 171 6.4 14.5 0.00 0.00 0.00 72 1021.5
20260904111238 23 119 8.0 12.9 0.00 0.00 0.00 72 1021.6
20260904105758 22 153 4.8 12.9 0.00 0.00 0.00 75 1021.6
20260904104758 22 136 6.4 14.5 0.00 0.00 0.00 75 1021.6
20260904103757 23 99 3.2 16.1 0.00 0.00 0.00 75 1021.3
20260904103716 22 250 0.0 6.4 0.00 0.00 0.00 76 1021.6
20260904101758 21 65 1.6 9.7 0.00 0.00 0.00 78 1021.6
20260904100758 21 122 4.8 9.7 0.00 0.00 0.00 77 1021.6
20260904095757 21 124 3.2 6.4 0.00 0.00 0.00 79 1021.3
20260904095238 21 168 1.6 9.7 0.00 0.00 0.00 80 1021.5
20260904093759 22 138 6.4 12.9 0.00 0.00 0.00 76 1021.5
20260904092758 22 221 0.0 9.7 0.00 0.00 0.00 76 1021.2
20260904091758 23 123 1.6 4.8 0.00 0.00 0.00 73 1021.3
20260904090757 22 100 3.2 3.2 0.00 0.00 0.00 74 1021.1
20260904085758 21 76 0.0 3.2 0.00 0.00 0.00 77 1021.3
20260904084758 20 33 0.0 4.8 0.00 0.00 0.00 75 1021.2
20260904083758 19 42 3.2 3.2 0.00 0.00 0.00 74 1021.2
20260904082758 19 324 0.0 3.2 0.00 0.00 0.00 78 1021.2
20260904081757 18 340 4.8 6.4 0.00 0.00 0.00 76 1021.5
20260904080758 17 339 1.6 6.4 0.00 0.00 0.00 76 1021.2
20260904075758 17 346 4.8 6.4 0.00 0.00 0.00 76 1021.1
20260904074758 16 331 6.4 6.4 0.00 0.00 0.00 76 1021.0
20260904073758 17 344 4.8 6.4 0.00 0.00 0.00 79 1021.1
20260904073235 16 317 4.8 6.4 0.00 0.00 0.00 82 1020.9
20260904071758 16 2 4.8 6.4 0.00 0.00 0.00 83 1021.1
20260904070758 17 353 3.2 9.7 0.00 0.00 0.00 86 1020.8
20260904070243 17 344 4.8 6.4 0.00 0.00 0.00 85 1020.8
20260904065233 17 353 4.8 6.4 0.00 0.00 0.00 83 1020.9
20260904063757 16 343 6.4 6.4 0.00 0.00 0.00 79 1020.8
20260904062758 16 329 4.8 6.4 0.00 0.00 0.00 76 1020.5
20260904061757 16 342 3.2 11.3 0.00 0.00 0.00 78 1020.4
20260904060759 16 339 3.2 6.4 0.00 0.00 0.00 76 1020.4
20260904055758 16 1 6.4 9.7 0.00 0.00 0.00 75 1020.3
20260904054758 17 339 3.2 9.7 0.00 0.00 0.00 81 1020.3
20260904053758 16 342 6.4 9.7 0.00 0.00 0.00 82 1020.1
20260904053236 16 334 4.8 6.4 0.00 0.00 0.00 85 1020.2
20260904051758 17 358 4.8 9.7 0.00 0.00 0.00 87 1020.2
20260904050758 17 318 4.8 6.4 0.00 0.00 0.00 89 1020.0
20260904045758 16 343 4.8 6.4 0.00 0.00 0.00 87 1020.1
20260904045235 16 343 3.2 6.4 0.00 0.00 0.00 85 1020.1
20260904043758 17 343 4.8 6.4 0.00 0.00 0.00 86 1020.2
20260904042758 17 343 3.2 6.4 0.00 0.00 0.00 87 1020.1
20260904041758 17 353 6.4 9.7 0.00 0.00 0.00 88 1019.9
20260904040758 17 340 3.2 6.4 0.00 0.00 0.00 89 1020.0
20260904035758 17 341 6.4 6.4 0.00 0.00 0.00 87 1020.4
20260904034758 17 335 3.2 9.7 0.00 0.00 0.00 85 1020.4
20260904034239 17 340 4.8 6.4 0.00 0.00 0.00 86 1020.3
20260904032758 17 338 4.8 9.7 0.00 0.00 0.00 88 1020.2
20260904031758 17 338 4.8 6.4 0.00 0.00 0.00 89 1020.1
20260904030758 17 353 6.4 9.7 0.00 0.00 0.00 87 1020.3
20260904025758 17 354 4.8 6.4 0.00 0.00 0.00 87 1020.7
20260904024758 17 343 3.2 9.7 0.00 0.00 0.00 86 1020.6
20260904023757 17 340 4.8 6.4 0.00 0.00 0.00 87 1020.6
20260904022758 17 345 4.8 9.7 0.00 0.00 0.00 87 1020.8
20260904021758 18 15 3.2 6.4 0.00 0.00 0.00 87 1020.9
20260904020758 18 5 6.4 9.7 0.00 0.00 0.00 87 1021.0
20260904015758 18 345 4.8 6.4 0.00 0.00 0.00 87 1021.3
20260904014758 18 345 3.2 6.4 0.00 0.00 0.00 87 1021.3
20260904014153 18 350 3.2 6.4 0.00 0.00 0.00 89 1021.8
20260904013828 18 341 1.6 6.4 0.00 0.00 0.00 87 1021.5
20260904011758 18 350 4.8 6.4 0.00 0.00 0.00 88 1021.7
20260904010758 18 344 4.8 4.8 0.00 0.00 0.00 88 1021.3
20260904005758 18 2 1.6 6.4 0.00 0.00 0.00 88 1021.3
20260904004758 18 0 3.2 4.8 0.00 0.00 0.00 88 1021.9
20260904003758 18 343 3.2 4.8 0.00 0.00 0.00 88 1021.9
20260904002758 17 355 4.8 6.4 0.00 0.00 0.00 87 1021.8